• In Lithuania
  • List of Countries
  • For 7 days
  • Water Temperature
  • Satellite Maps
  • Weather Map
  • Weather Widgets
  • user-avatar
    Login

    Hourly Weather Lloret de Mar

    Today, 21 November, Tuesday

    Time Temperature Precipitation Wind Pressure Humidity
    00:00 +12°C° 0 mm 3 mps 764 mmHg 49%
    01:00 +11°C° 0 mm 3 mps 764 mmHg 49%
    02:00 +11°C° 0 mm 3 mps 764 mmHg 48%
    03:00 +11°C° 0 mm 3 mps 764 mmHg 48%
    04:00 +12°C° 0 mm 2 mps 764 mmHg 47%
    05:00 +12°C° 0 mm 2 mps 764 mmHg 47%
    06:00 +12°C° 0 mm 2 mps 764 mmHg 47%
    07:00 +14°C° 0 mm 2 mps 764 mmHg 43%
    08:00 +16°C° 0 mm 2 mps 764 mmHg 40%
    09:00 +18°C° 0 mm 1 mps 764 mmHg 36%
    10:00 +20°C° 0 mm 1 mps 763 mmHg 34%
    11:00 +21°C° 0 mm 1 mps 763 mmHg 31%
    12:00 +23°C° 0 mm 1 mps 763 mmHg 29%
    13:00 +21°C° 0 mm 2 mps 763 mmHg 31%
    14:00 +21°C° 0 mm 2 mps 762 mmHg 34%
    15:00 +20°C° 0 mm 2 mps 762 mmHg 37%
    16:00 +18°C° 0 mm 2 mps 762 mmHg 42%
    17:00 +16°C° 0 mm 2 mps 762 mmHg 48%
    18:00 +14°C° 0 mm 2 mps 762 mmHg 53%
    19:00 +14°C° 0 mm 2 mps 762 mmHg 53%
    20:00 +14°C° 0 mm 2 mps 762 mmHg 53%
    21:00 +13°C° 0 mm 2 mps 762 mmHg 53%
    22:00 +13°C° 0 mm 2 mps 762 mmHg 53%
    23:00 +13°C° 0 mm 2 mps 762 mmHg 53%

    Tomorrow, 22 November, Wednesday

    Time Temperature Precipitation Wind Pressure Humidity
    00:00 +12°C° 0 mm 3 mps 762 mmHg 53%
    01:00 +12°C° 0 mm 3 mps 762 mmHg 53%
    02:00 +11°C° 0 mm 3 mps 761 mmHg 54%
    03:00 +11°C° 0 mm 3 mps 761 mmHg 54%
    04:00 +11°C° 0 mm 3 mps 761 mmHg 53%
    05:00 +11°C° 0 mm 3 mps 761 mmHg 53%
    06:00 +10°C° 0 mm 4 mps 760 mmHg 52%
    07:00 +12°C° 0 mm 3 mps 760 mmHg 49%
    08:00 +14°C° 0 mm 3 mps 761 mmHg 45%
    09:00 +16°C° 0 mm 3 mps 761 mmHg 42%
    10:00 +18°C° 0 mm 4 mps 760 mmHg 40%
    11:00 +20°C° 0 mm 4 mps 760 mmHg 39%
    12:00 +21°C° 0 mm 5 mps 760 mmHg 37%
    13:00 +21°C° 0 mm 5 mps 759 mmHg 42%
    14:00 +20°C° 0 mm 5 mps 759 mmHg 47%
    15:00 +20°C° 0 mm 6 mps 759 mmHg 52%
    16:00 +17°C° 0 mm 5 mps 759 mmHg 61%
    17:00 +16°C° 0 mm 5 mps 759 mmHg 70%
    18:00 +14°C° 0 mm 5 mps 759 mmHg 80%
    19:00 +14°C° 0 mm 5 mps 759 mmHg 81%
    20:00 +13°C° 0 mm 5 mps 759 mmHg 82%
    21:00 +13°C° 0 mm 4 mps 759 mmHg 83%
    22:00 +13°C° 0 mm 5 mps 759 mmHg 80%
    23:00 +13°C° 0 mm 5 mps 759 mmHg 78%

    Day after tomorrow, 23 November, Thursday

    Time Temperature Precipitation Wind Pressure Humidity
    00:00 +12°C° 0 mm 5 mps 759 mmHg 75%
    01:00 +12°C° 0 mm 4 mps 759 mmHg 72%
    02:00 +12°C° 0 mm 4 mps 759 mmHg 69%
    03:00 +11°C° 0 mm 4 mps 759 mmHg 66%
    04:00 +11°C° 0 mm 4 mps 760 mmHg 62%
    05:00 +11°C° 0 mm 4 mps 760 mmHg 57%
    06:00 +11°C° 0 mm 4 mps 760 mmHg 53%
    07:00 +12°C° 0 mm 3 mps 760 mmHg 48%
    08:00 +14°C° 0 mm 3 mps 761 mmHg 42%
    09:00 +16°C° 0 mm 3 mps 761 mmHg 37%
    10:00 +18°C° 0 mm 3 mps 761 mmHg 36%
    11:00 +20°C° 0 mm 3 mps 761 mmHg 34%
    12:00 +21°C° 0 mm 3 mps 761 mmHg 33%
    13:00 +21°C° 0 mm 3 mps 761 mmHg 35%
    14:00 +21°C° 0 mm 3 mps 761 mmHg 38%
    15:00 +21°C° 0 mm 4 mps 761 mmHg 41%
    16:00 +19°C° 0 mm 4 mps 761 mmHg 48%
    17:00 +17°C° 0 mm 4 mps 761 mmHg 55%
    18:00 +14°C° 0 mm 4 mps 762 mmHg 62%
    19:00 +13°C° 0 mm 3 mps 762 mmHg 62%
    20:00 +13°C° 0 mm 3 mps 762 mmHg 62%
    21:00 +13°C° 0 mm 3 mps 763 mmHg 62%
    22:00 +12°C° 0 mm 3 mps 762 mmHg 61%
    23:00 +12°C° 0 mm 3 mps 762 mmHg 61%

    24 November, Friday

    Time Temperature Precipitation Wind Pressure Humidity
    00:00 +12°C° 0 mm 3 mps 762 mmHg 60%
    01:00 +12°C° 0 mm 3 mps 762 mmHg 60%
    02:00 +12°C° 0 mm 3 mps 762 mmHg 60%
    03:00 +12°C° 0 mm 3 mps 762 mmHg 60%
    04:00 +12°C° 0 mm 3 mps 762 mmHg 60%
    05:00 +11°C° 0 mm 3 mps 762 mmHg 60%
    06:00 +11°C° 0 mm 3 mps 762 mmHg 60%
    07:00 +13°C° 0 mm 3 mps 763 mmHg 55%
    08:00 +16°C° 0 mm 3 mps 763 mmHg 50%
    09:00 +17°C° 0 mm 3 mps 763 mmHg 45%
    10:00 +19°C° 0 mm 4 mps 763 mmHg 42%
    11:00 +21°C° 0 mm 4 mps 763 mmHg 40%
    12:00 +23°C° 0 mm 5 mps 762 mmHg 37%
    13:00 +22°C° 0 mm 5 mps 762 mmHg 39%
    14:00 +22°C° 0 mm 6 mps 762 mmHg 41%
    15:00 +22°C° 0 mm 6 mps 761 mmHg 42%
    16:00 +20°C° 0 mm 6 mps 762 mmHg 50%
    17:00 +17°C° 0 mm 5 mps 762 mmHg 57%
    18:00 +16°C° 0 mm 5 mps 762 mmHg 65%
    19:00 +16°C° 0 mm 5 mps 762 mmHg 67%
    20:00 +15°C° 0 mm 5 mps 762 mmHg 69%
    21:00 +15°C° 0 mm 5 mps 763 mmHg 72%
    22:00 +15°C° 0 mm 5 mps 762 mmHg 72%
    23:00 +15°C° 0 mm 5 mps 762 mmHg 73%

    25 November, Saturday

    Time Temperature Precipitation Wind Pressure Humidity
    00:00 +14°C° 0 mm 4 mps 762 mmHg 74%
    01:00 +14°C° 0 mm 5 mps 762 mmHg 74%
    02:00 +14°C° 0 mm 5 mps 762 mmHg 75%
    03:00 +14°C° 0 mm 5 mps 761 mmHg 75%
    04:00 +14°C° 0 mm 5 mps 761 mmHg 73%
    05:00 +14°C° 0 mm 5 mps 761 mmHg 72%
    06:00 +14°C° 0 mm 5 mps 761 mmHg 71%
    07:00 +15°C° 0 mm 5 mps 762 mmHg 65%
    08:00 +16°C° 0 mm 5 mps 762 mmHg 59%
    09:00 +17°C° 0 mm 5 mps 762 mmHg 53%
    10:00 +20°C° 0 mm 5 mps 762 mmHg 46%
    11:00 +22°C° 0 mm 6 mps 762 mmHg 40%
    12:00 +23°C° 0 mm 6 mps 762 mmHg 34%
    13:00 +23°C° 0 mm 5 mps 762 mmHg 37%
    14:00 +22°C° 0 mm 4 mps 762 mmHg 40%
    15:00 +22°C° 0 mm 4 mps 762 mmHg 43%
    16:00 +20°C° 0 mm 4 mps 763 mmHg 50%
    17:00 +18°C° 0 mm 4 mps 763 mmHg 57%
    18:00 +15°C° 0 mm 4 mps 764 mmHg 64%
    19:00 +14°C° 0 mm 5 mps 764 mmHg 67%
    20:00 +14°C° 0 mm 5 mps 765 mmHg 70%
    21:00 +13°C° 0 mm 6 mps 766 mmHg 72%
    22:00 +13°C° 0 mm 6 mps 766 mmHg 72%
    23:00 +13°C° 0 mm 6 mps 766 mmHg 72%

    26 November, Sunday

    Time Temperature Precipitation Wind Pressure Humidity
    00:00 +12°C° 0 mm 7 mps 767 mmHg 72%
    01:00 +12°C° 0 mm 7 mps 767 mmHg 71%
    02:00 +11°C° 0 mm 6 mps 767 mmHg 71%
    03:00 +11°C° 0 mm 6 mps 767 mmHg 71%
    04:00 +11°C° 0 mm 6 mps 767 mmHg 72%
    05:00 +11°C° 0 mm 6 mps 767 mmHg 72%
    06:00 +12°C° 0 mm 5 mps 767 mmHg 72%
    07:00 +13°C° 0 mm 5 mps 768 mmHg 70%
    08:00 +13°C° 0 mm 5 mps 768 mmHg 68%
    09:00 +14°C° 0 mm 5 mps 769 mmHg 65%
    10:00 +15°C° 0 mm 5 mps 768 mmHg 61%
    11:00 +15°C° 0 mm 5 mps 768 mmHg 57%
    12:00 +16°C° 0 mm 5 mps 768 mmHg 53%
    13:00 +17°C° 0 mm 4 mps 768 mmHg 53%
    14:00 +17°C° 0 mm 4 mps 768 mmHg 54%
    15:00 +15°C° 0 mm 4 mps 768 mmHg 54%
    16:00 +14°C° 0 mm 4 mps 768 mmHg 57%
    17:00 +13°C° 0 mm 3 mps 768 mmHg 61%
    18:00 +12°C° 0 mm 3 mps 768 mmHg 64%
    19:00 +13°C° 0 mm 2 mps 768 mmHg 66%
    20:00 +13°C° 0 mm 2 mps 768 mmHg 68%
    21:00 +13°C° 0 mm 1 mps 768 mmHg 71%
    22:00 +13°C° 0 mm 1 mps 768 mmHg 73%
    23:00 +13°C° 0 mm 1 mps 767 mmHg 76%
    Show more